Powrót do katalogu

STARLINK-5805

AktywnyŁącznośćVLEO
NORAD 56912·PAYLOAD·🇺🇸 United States

Wystrzelony Jun 12, 2023 z Cape Canaveral Space Force Station

Loading…

Następne Przeloty (najbliższe 24 godziny)

TLE

ŚwieżeSource: CelesTrak SupGP

Epoka: Sep 14, 2026, 22:09 UTC

1 56912C 23083AN  26257.92340278  .00031686  00000+0  11483-2 0  2575
2 56912  43.0032  82.1381 0001430 276.6998 214.0749 15.27545427    15

Śledź STARLINK-5805 w czasie rzeczywistym z AllMySat

Download on the App Store